Location: Newark
(49.1939°N, 0.8136°E)
Time: 03:42:45
(UTC+00:00)

Envisat - Pass Details

Date: 21 November 2019
Orbit: 764 x 766 km, 98.1° (Epoch: 14 December)

Event Time Altitude Azimuth Distance (km) Brightness Sun altitude
Rises 17:42:04 0° 163° (SSE) 3,221 6.2 -14.9°
Reaches altitude 10° 17:44:21 10° 162° (SSE) 2,299 5.4 -15.3°
Maximum altitude 17:49:26 86° 74° (ENE) 775 2.9 -16.1°
Drops below altitude 10° 17:54:33 10° 347° (NNW) 2,315 5.5 -16.9°
Sets 17:56:52 0° 347° (NNW) 3,246 6.3 -17.3°
